SL-16 DEB, 20628

Orbit data source: Space-Track

SL-16 DEB, 20628 is space debris in LEO originally from a launch on Tue, 22 May 1990 UTC launched from the Tyuratam Missile And Space Complex (TTMTR). Debris objects in space refer to the collection of defunct objects orbiting the Earth. Examples of debris include non-operational satellites, rocket bodies, and fragments generated from explosions, collisions, or faulty payload assembly.

Loading next visibility...
Identifier
20628, 1990-046E
Orbit
LEO
Country
Flag of CISCIS
Related business
Manufacturer
Yuzhnoe
Mission
Spacecraft
Bus & Motor
SEP MOTOR COVER, Unknown motor
Mass
~0 kg wet, ~1 kg dry
Launch date (UTC)
1990-05-22 (36 years ago)
Launch vehicle
Unknown
Launch site
Tyuratam Missile And Space Complex (TTMTR)
Object type
Payload
Rocket body
Debris
Shape & HBR
Unknown
Radar Cross Section
Medium (>0.1 m² and <1 m²)

Expand to show TLE details & history
Last TLE update: 8 hours ago

TLE from 8 hours ago
0 SL-16 DEB
1 20628U 90046E   26165.75400693  .00000102  00000-0  13609-3 0  9996
2 20628  70.9745 179.4881 0208681 220.8635 137.6662 13.72488524805144
Epoch: 2026-06-14T18:05Z
TLE epoch observation values (Epoch: 2026-06-14T18:05:46.198Z)
Latitude
0.00001°
Longitude
4.9954°
Altitude
1,108.112 km
Speed
7.241 km/s
True Right ascension
11h 57m 57s
True Declination
0° 00' 00"
Sunlit
Object was in daylight at epoch
Visualization orbit readout
Latitude
Unknown
Longitude
Unknown
Altitude
Unknown
Speed
Unknown
Apparent Right ascension
Unknown
Apparent Declination
Unknown
Sunlit
N/A
Visualization observer readout
Local Sidereal Time
12:45:14
Azimuth
Unknown
Elevation
Unknown
Doppler factor
Unknown
Orbital elements
Apogee altitude
1,142.349 km
Perigee altitude
834.888 km
Semi-major axis
7,366.755 km
Eccentricity
0.02087
Inclination
70.9745°
RAAN
179.4881°
Arg. of periapsis
220.8635°
True anomaly
139.24593°
Mean anomaly
137.6662°
Eccentric anomaly
138.4591°
Mean motion
3.43264 °/min
Orbital period
104.88 mins
BSTAR
0.00013609
Loading maneuver chart data...
Computing Atmospheric mass density...
Loading historical data...
Loading historical data...
Loading historical data...
Loading historical data...
Loading historical data...
Loading historical data...
Loading historical data...
Other satellites on launch #46 in the year 1990 (1990-05-22 UTC)

Documentation

Showing up to 5 results
|